CZ-3C R/B

Satellite information

Favourite Embed

Satellite Type and Status

ROCKET BODYIN ORBIT

Key statistics

Satellite CZ-3C R/B at a glance.

Uptime

4638

Days in orbit

Revolutions

≈ 4.0

Per day

Orbit

MEO

Medium Earth Orbit

Inclination

20.4

Latest

Satellite identification and parameters

Extended collection of information and parameters for CZ-3C R/B.

Object identification

Identified? True

Debris? False

Object name: CZ-3C R/B

International designator: 2012-059B

Object number (NORAD): 38954

Object ID (CCSDS): 38954

Country: PEOPLES REPUBLIC OF CHINA (PRC)

Current information (Y/N): Y

RCS size: LARGE

Orbital parameters

Period: 358.306 minutes

Inclination: 20.4276 deg

SMA: 16710.76 km

Apoapsis: 20383.537 km

Periapsis: 281.713 km

RAAN: 307.4348 deg

Eccentricy: 0.6014635

Argument of periapsis: 279.5478 deg

Mean anomaly: 21.1664 deg

Mean motion: 4.01891172 rev/day

Mean motion (dot): 0.00004282 rev/day2

B* drag term: 0.00088445 1/REarth

Two-line elements (TLE)

Creation date: July 6, 2025, 6:05 p.m.

Reference frame: TEME

Reference center: EARTH

Epoch: July 6, 2025, 8:04 a.m. UTC

TLE line 0: 0 CZ-3C R/B

TLE line 1: 1 38954U 12059B 25187.33677945 .00004282 00000-0 88445-3 0 9991

TLE line 2: 2 38954 20.4276 307.4348 6014635 279.5478 21.1664 4.01891172150355

Live tracking on map

Real-time ground track for satellite CZ-3C R/B.

In-orbit conjunctions

A list of the most updated potential collisions computed for object CZ-3C R/B.

Target Orbit TCA Probability of collision Miss distance Type
ARIANE 44L DEB (SPELDA) MEO 2025-05-11 20:38:40 TBA 2000.0 (m) DEBRIS

Associated space launch

CZ-3C R/B was lifted into orbit during the mission ‘Long March 3C | Compass-G6’, on board a Long March 3 space rocket.

The launch took place on Oct. 25, 2012, 3:33 p.m. from Launch Complex 2 (LC-2).

For more information about the launch, click the button.

Launch to space Long March 3C | Compass-G6
Long March 3C | Compass-G6

Agency: N/A

Status: Launch Successful

Launch date: Oct. 25, 2012, 3:33 p.m. UTC

Rocket: Long March 3

Launch pad: Launch Complex 2 (LC-2)

Location: Xichang Satellite Launch Center, People's Republic of China

...

Latest news about this satellite

There are no fresh news available about this satellite. Check back as we update our databases every day.


Newsletter sign-up

Weekly statistics, charts and insights to help you stay on top of the space industry.